STARLINK C

Last updated on June 19, 2020, 12:02 a.m. UTC

1 45732U 20038C   20170.75001157  .03257398  10127-1  73258-2 0  9996
2 45732  53.0014 271.8633 0094969  68.0877 134.4025 15.91404938  2138

Satellite is not in orbit.